Flag for Germany Weather past 2 weeks in Oelde, North Rhine-Westphalia, Germany

37 °F

Partly cloudy.

Feels Like: 29 °F
Forecast: 41 / 50 °F
Wind: 13 mph from South

Location: Paderborn / Lippstadt

Current Time: Nov 28, 2015 at 5:09:09 AM

Latest Report: Nov 28, 2015 at 4:20 AM

Visibility: N/A

Pressure: 29.65 "Hg

Humidity: 75%

Dew point: 30 °F

Location of OeldeLocation

Historic Weather in Oelde — Graph


Oelde temperature yesterday

Maximum temperature yesterday: 41 °F (at 12:20 PM)
Minimum temperature yesterday: 34 °F (at 3:50 AM)
Average temperature yesterday: 36 °F

Past Weeks' High & Low Weather Summary

High57 °F (Nov 17, 1:20 PM)100% (Nov 15, 3:20 PM)30.24 "Hg (Nov 15, 3:20 PM)
Low30 °F (Nov 22, 9:50 PM)56% (Nov 24, 10:50 AM)29.36 "Hg (Nov 21, 5:20 AM)
Average43 °F83%29.86 "Hg
* Reported Nov 13 3:20 AM — Nov 28 3:50 AM, Oelde, Weather by CustomWeather, © 2015

Note: Actual official high and low records may vary slightly from our data, if they occured in-between our weather recording intervals... More about our weather records


Oelde weather history for previous 24 hours

Time TempWeatherWind HumidityBarometerVisibility
3:50 AM
Sat, Nov 28
37 °FPassing clouds.9 mph75%29.68 "HgN/A
3:20 AM37 °FPartly cloudy.14 mph70%29.68 "HgN/A
2:50 AM37 °FPartly cloudy.12 mph70%29.71 "HgN/A
2:20 AM36 °FPartly cloudy.12 mph70%29.71 "HgN/A
1:50 AM36 °FClear.13 mph70%29.74 "Hg10 mi
1:20 AM34 °FClear.14 mph75%29.74 "Hg10 mi
12:50 AM34 °FClear.13 mph75%29.77 "Hg10 mi
11:50 PM
Fri, Nov 27
34 °FClear.10 mph75%29.80 "Hg10 mi
11:20 PM34 °FClear.10 mph75%29.83 "Hg10 mi
10:50 PM34 °FClear.13 mph75%29.83 "Hg10 mi
10:20 PM34 °FClear.16 mph81%29.83 "Hg10 mi
9:50 PM34 °FPassing clouds.17 mph81%29.83 "HgN/A
9:20 PM34 °FClear.17 mph81%29.86 "Hg10 mi
8:50 PM36 °FClear.17 mph70%29.86 "Hg10 mi
8:20 PM36 °FClear.17 mph70%29.86 "Hg10 mi
7:50 PM36 °FClear.16 mph70%29.89 "Hg10 mi
7:20 PM36 °FClear.16 mph75%29.89 "Hg10 mi
6:50 PM36 °FClear.14 mph75%29.92 "Hg10 mi
6:20 PM36 °FClear.12 mph75%29.92 "Hg10 mi
5:50 PM36 °FClear.10 mph75%29.92 "Hg10 mi
5:20 PM37 °FClear.12 mph75%29.92 "Hg10 mi
4:50 PM37 °FClear.8 mph75%29.92 "Hg10 mi
4:20 PM37 °FSunny.7 mph70%29.95 "Hg10 mi
3:50 PM39 °FPassing clouds.7 mph70%29.95 "HgN/A
3:20 PM39 °FSunny.12 mph70%29.95 "Hg10 mi
2:50 PM41 °FSunny.12 mph66%29.98 "Hg10 mi
2:20 PM41 °FSunny.10 mph66%29.98 "Hg10 mi
1:50 PM41 °FPassing clouds.10 mph66%29.98 "HgN/A
1:20 PM41 °FSunny.9 mph66%30.01 "Hg10 mi
12:50 PM41 °FSunny.12 mph70%30.01 "Hg10 mi
12:20 PM41 °FSunny.15 mph66%30.04 "Hg10 mi
11:50 AM39 °FSunny.14 mph75%30.04 "Hg10 mi
11:20 AM39 °FSunny.14 mph75%30.04 "Hg10 mi
10:50 AM37 °FSunny.13 mph75%30.07 "Hg10 mi
10:20 AM37 °FSunny.12 mph75%30.07 "Hg10 mi
9:50 AM36 °FSunny.12 mph81%30.07 "Hg10 mi
9:20 AM36 °FSunny.12 mph81%30.07 "Hg10 mi
8:50 AM36 °FSunny.10 mph81%30.07 "Hg10 mi
7:50 AM34 °FClear.10 mph87%30.09 "Hg10 mi
7:20 AM34 °FClear.10 mph87%30.09 "Hg10 mi
6:50 AM34 °FClear.9 mph87%30.09 "Hg10 mi
6:20 AM34 °FClear.10 mph87%30.09 "Hg10 mi
5:50 AM34 °FClear.10 mph87%30.09 "Hg10 mi
Weather by CustomWeather, © 2015

See weather overviewHow to use our weather pages